TimeEDT,TemperatureF,Dew PointF,Humidity,Sea Level PressureIn,VisibilityMPH,Wind Direction,Wind SpeedMPH,Gust SpeedMPH,PrecipitationIn,Events,Conditions,WindDirDegrees,DateUTC
12:53 AM,73.0,68.0,84,29.99,10.0,Calm,Calm,-,N/A,,Clear,0,2012-10-08 04:53:00
1:29 AM,71.6,68.0,88,30.00,10.0,NW,3.5,-,N/A,,Mostly Cloudy,310,2012-10-08 05:29:00
1:42 AM,71.6,68.0,88,30.00,10.0,WNW,3.5,-,N/A,,Scattered Clouds,300,2012-10-08 05:42:00
1:53 AM,71.1,68.0,90,29.99,10.0,Calm,Calm,-,N/A,,Partly Cloudy,0,2012-10-08 05:53:00
2:53 AM,70.0,68.0,93,29.97,10.0,Calm,Calm,-,N/A,,Clear,0,2012-10-08 06:53:00
3:53 AM,71.1,68.0,90,29.96,10.0,Calm,Calm,-,N/A,,Clear,0,2012-10-08 07:53:00
4:53 AM,70.0,68.0,93,29.96,10.0,Calm,Calm,-,N/A,,Clear,0,2012-10-08 08:53:00
5:53 AM,70.0,68.0,93,29.97,10.0,Calm,Calm,-,N/A,,Clear,0,2012-10-08 09:53:00
6:53 AM,70.0,68.0,93,29.99,10.0,Calm,Calm,-,N/A,,Clear,0,2012-10-08 10:53:00
7:53 AM,70.0,68.0,93,30.01,10.0,Calm,Calm,-,N/A,,Clear,0,2012-10-08 11:53:00
8:53 AM,73.0,71.1,93,30.02,10.0,Calm,Calm,-,N/A,,Clear,0,2012-10-08 12:53:00
9:53 AM,77.0,72.0,84,30.04,10.0,Calm,Calm,-,N/A,,Clear,0,2012-10-08 13:53:00
10:53 AM,79.0,72.0,79,30.04,10.0,SE,3.5,-,N/A,,Clear,130,2012-10-08 14:53:00
11:53 AM,81.0,71.1,72,30.03,10.0,SSE,4.6,-,N/A,,Clear,160,2012-10-08 15:53:00
12:53 PM,82.0,71.1,69,30.01,10.0,Variable,3.5,-,N/A,,Clear,0,2012-10-08 16:53:00
1:53 PM,82.9,70.0,65,29.99,10.0,WSW,4.6,-,N/A,,Scattered Clouds,250,2012-10-08 17:53:00
2:53 PM,82.9,70.0,65,29.96,10.0,SSW,5.8,-,N/A,,Mostly Cloudy,210,2012-10-08 18:53:00
3:02 PM,82.4,71.6,70,29.96,10.0,SSW,4.6,-,N/A,,Mostly Cloudy,200,2012-10-08 19:02:00
3:14 PM,82.4,71.6,70,29.96,10.0,South,6.9,-,N/A,,Mostly Cloudy,190,2012-10-08 19:14:00
3:53 PM,81.0,70.0,69,29.96,10.0,SW,5.8,-,N/A,,Clear,220,2012-10-08 19:53:00
4:53 PM,79.0,73.0,82,29.97,10.0,WNW,6.9,-,0.00,Rain,Light Rain,290,2012-10-08 20:53:00
5:53 PM,75.0,71.1,87,29.97,10.0,WNW,5.8,-,0.01,Rain,Light Rain,290,2012-10-08 21:53:00
6:53 PM,73.9,71.1,91,29.97,10.0,Calm,Calm,-,N/A,,Clear,0,2012-10-08 22:53:00
7:34 PM,73.4,71.6,94,29.98,10.0,Variable,3.5,-,N/A,,Partly Cloudy,0,2012-10-08 23:34:00
7:53 PM,72.0,70.0,93,29.99,10.0,Calm,Calm,-,N/A,,Scattered Clouds,0,2012-10-08 23:53:00
8:10 PM,71.6,71.6,100,30.00,10.0,Calm,Calm,-,N/A,,Mostly Cloudy,0,2012-10-09 00:10:00
8:33 PM,73.4,71.6,94,30.01,10.0,NNW,5.8,-,N/A,,Scattered Clouds,340,2012-10-09 00:33:00
8:53 PM,73.0,71.1,93,30.01,10.0,North,4.6,-,N/A,,Clear,350,2012-10-09 00:53:00
9:14 PM,73.4,71.6,94,30.03,10.0,NNE,6.9,-,N/A,,Mostly Cloudy,20,2012-10-09 01:14:00
9:42 PM,73.4,69.8,88,30.03,10.0,NNE,8.1,-,N/A,,Mostly Cloudy,20,2012-10-09 01:42:00
9:53 PM,73.0,70.0,90,30.02,10.0,North,6.9,-,N/A,,Partly Cloudy,10,2012-10-09 01:53:00
10:35 PM,71.6,69.8,94,30.04,10.0,Calm,Calm,-,N/A,,Mostly Cloudy,0,2012-10-09 02:35:00
10:53 PM,72.0,70.0,93,30.04,10.0,Calm,Calm,-,N/A,,Overcast,0,2012-10-09 02:53:00
11:53 PM,73.0,70.0,90,30.05,10.0,North,5.8,-,N/A,,Overcast,10,2012-10-09 03:53:00